STARLINK-33909, 63804

Orbit data source: Space-Track

STARLINK-33909, 63804 is a payload satellite owned by SpaceX/Seattle (US) in LEO that was launched on Sun, 04 May 2025 UTC via an FALCON 9 launch vehicle from the Air Force Eastern Test Range (AFETR). Payload-class satellites include a variety of spacecraft equipped with specific instruments for various scientific and technological missions. These include communications satellites like Starlink; space stations such as the ISS; scientific satellites like the Hubble; Earth observation satellites from companies like Planet Labs, Umbra, and HawkEye 360; GPS; miniature CubeSats for education and research; and military/defense satellites.

Loading next visibility...
Identifier
63804, 2025-092A
Orbit
LEO
Country
Flag of USUS
Related business
Manufacturer
SpaceX/Seattle
Mission
Operational Commercial Communications
Bus & Motor
STARLINK V2MO, Unknown motor
Mass
575 kg wet, ~530 kg dry
Launch date (UTC)
2025-05-04 (7 months ago)
Launch vehicle
FALCON 9
Launch site
Air Force Eastern Test Range (AFETR)
Object type
Payload
Rocket body
Debris
Shape & HBR
Box + 2 Pan, 17.7 m
Radar Cross Section
36.964 m², Large (>1 m²)

Expand to show TLE details & history
Last TLE update: 18 hours ago

TLE from 18 hours ago
0 STARLINK-33909
1 63804U 25092A   25349.88967468  .00019977  00000-0  73320-3 0  9999
2 63804  43.0026 286.2358 0001536 252.6007 107.4677 15.27593829 35796
Epoch: 2025-12-15T21:21Z
TLE epoch observation values (Epoch: 2025-12-15T21:21:07.892Z)
Latitude
Longitude
-118.82884°
Altitude
483.1 km
Speed
7.625 km/s
True Right ascension
19h 04m 56s
True Declination
0° 00' 00"
Sunlit
Object was in daylight at epoch
Visualization orbit readout
Latitude
Unknown
Longitude
Unknown
Altitude
Unknown
Speed
Unknown
Apparent Right ascension
Unknown
Apparent Declination
Unknown
Sunlit
N/A
Visualization observer readout
Local Sidereal Time
14:22:40
Azimuth
Unknown
Elevation
Unknown
Doppler factor
Unknown
Orbital elements
Apogee altitude
486.007 km
Perigee altitude
483.898 km
Semi-major axis
6,863.089 km
Eccentricity
0.00015
Inclination
43.0026°
RAAN
286.2358°
Arg. of periapsis
252.6007°
True anomaly
107.48449°
Mean anomaly
107.4677°
Eccentric anomaly
107.47609°
Mean motion
3.81736 °/min
Orbital period
94.31 mins
BSTAR
0.0007332
Loading maneuver chart data...
Computing Atmospheric mass density...
Loading historical data...
Loading historical data...
Loading historical data...
Loading historical data...
Loading historical data...
Loading historical data...
Loading historical data...

Documentation

Showing up to 5 results
|